Wind_Speed
69 69 69 68 68 68 67 66 66 65 65 65 65 65 64 63 63 63 63 62 61 61 61 61 61 60 60 61 61 62 63 63 63 63 64 64 65 66 67 67 68 68 69 69 70 71 72 73 73 73 73 73 73 73 72 72 71 71 71 70 69 68 64 61 61 64 67 68 68 67 66 63 62 62 62 61 59 57 55 53 52 51 48 46 46
73 73 72 71 71 71 70 69 69 69 69 68 68 68 67 66 66 66 66 65 65 64 64 64 64 63 63 63 64 64 64 65 65 66 66 66 66 66 67 68 68 69 70 71 71 72 73 74 74 74 74 74 75 75 74 74 73 72 72 71 71 70 68 64 62 63 66 69 70 70 69 67 65 66 65 64 62 60 59 59 57 55 52 51 51
75 75 75 75 74 74 74 73 72 72 72 72 71 71 70 69 69 69 68 68 68 68 68 68 67 67 67 67 66 66 66 67 67 67 68 68 68 68 68 68 69 69 70 70 71 72 73 75 75 75 75 75 76 76 75 75 74 73 73 73 72 72 71 68 65 64 66 69 71 71 71 70 69 69 68 66 66 65 63 63 62 60 56 54 55
78 78 78 77 76 76 76 76 75 75 75 75 74 73 73 72 72 71 71 71 71 71 71 71 70 70 70 70 70 70 69 69 69 69 69 69 70 70 70 70 70 70 71 71 71 72 73 74 76 76 76 76 77 78 77 77 76 76 75 75 74 74 74 72 68 66 66 69 71 72 73 72 72 72 71 69 70 70 68 67 66 64 61 58 58
81 82 81 80 79 78 78 78 78 78 77 77 76 75 74 74 74 74 74 73 74 74 74 74 74 74 74 74 73 73 73 72 72 72 72 72 72 72 71 71 71 71 72 73 73 73 74 75 75 76 76 76 77 78 78 78 78 78 78 77 76 75 75 74 72 69 68 69 72 73 74 74 74 74 73 73 73 73 72 70 69 68 66 63 62
83 85 85 84 82 80 80 80 79 79 79 78 77 76 76 76 77 76 76 76 76 76 76 77 77 77 77 77 77 77 76 76 75 75 75 75 75 75 74 74 74 74 74 74 74 75 75 76 77 77 76 77 78 78 78 78 78 78 79 79 78 77 76 76 75 73 70 70 72 74 75 75 76 76 76 75 75 75 75 74 72 71 70 68 66
85 87 88 87 85 84 83 83 82 81 80 79 77 76 77 78 79 79 79 79 78 78 78 79 79 79 79 79 80 79 79 79 78 78 78 78 78 78 78 78 78 78 78 77 77 77 77 77 78 78 78 77 78 79 79 79 79 79 79 79 79 79 78 77 77 75 73 72 73 75 76 76 77 78 78 78 77 77 77 77 76 74 73 72 70
85 87 88 87 87 86 86 87 87 84 82 81 79 78 79 80 80 81 81 81 81 80 80 80 81 81 81 81 81 81 81 81 81 81 81 81 81 81 80 80 81 81 81 81 81 80 80 80 80 80 80 79 79 80 80 80 80 80 80 80 79 79 78 78 78 77 76 74 74 76 77 77 77 78 80 80 79 79 80 79 79 78 77 75 74
84 85 86 86 87 87 86 87 88 87 85 84 82 81 82 83 83 84 84 84 83 82 82 82 82 82 82 82 82 83 83 83 83 83 83 83 83 83 83 83 83 83 83 84 84 83 83 83 83 83 82 82 81 81 81 81 80 80 81 81 81 80 79 78 78 78 78 77 76 76 77 78 79 79 80 81 81 82 82 81 80 81 80 79 78
83 84 84 85 87 88 87 87 86 86 87 87 86 86 86 87 87 88 88 87 86 85 84 84 84 83 83 84 84 84 85 85 85 85 85 84 84 84 84 85 85 85 85 85 85 85 85 85 85 85 85 85 85 84 84 83 82 81 82 82 82 81 81 80 79 78 78 77 78 78 78 78 80 81 82 82 82 83 83 83 82 82 81 80 80
82 83 84 84 84 85 85 83 82 84 87 87 87 88 89 88 89 90 91 90 89 88 87 87 87 87 87 86 86 87 87 87 87 87 86 85 85 85 85 86 86 86 86 86 86 87 87 86 86 87 87 87 87 87 87 86 85 84 83 83 82 82 82 82 81 80 79 78 78 79 79 79 80 82 83 83 84 83 83 83 83 83 82 82 83
79 81 83 83 83 84 83 79 76 79 83 85 87 88 88 89 89 90 90 90 90 90 90 90 90 90 90 90 91 91 91 91 90 89 88 87 86 86 86 86 86 87 87 87 87 87 87 87 87 88 88 88 88 88 89 89 88 87 86 85 84 83 83 83 83 83 81 79 78 79 79 81 82 83 83 84 85 84 84 83 83 83 84 84 84
75 78 80 81 81 82 82 80 77 76 77 79 81 83 84 87 89 90 89 89 90 90 91 92 93 93 93 94 95 95 95 94 93 92 91 90 89 89 88 87 87 88 88 88 88 88 89 89 89 89 89 89 89 89 89 89 90 90 88 87 87 86 85 84 83 84 84 82 80 79 80 82 83 84 84 84 84 84 84 83 83 84 84 85 85
71 72 75 77 79 79 80 79 77 76 76 77 76 78 80 83 87 90 91 90 90 91 91 92 93 94 95 96 98 98 98 97 96 95 94 94 92 91 91 90 90 90 90 90 90 90 91 91 91 91 91 91 90 90 90 90 90 90 89 89 88 88 87 86 85 85 85 84 82 81 82 83 82 84 86 85 84 84 84 84 84 84 84 85 85
67 68 70 72 74 76 76 74 71 70 74 78 78 78 80 82 85 89 91 91 91 92 93 93 94 96 96 97 97 98 99 99 98 98 97 96 94 93 92 92 93 93 93 94 94 94 95 95 94 94 94 94 93 93 92 91 90 90 89 89 88 88 88 88 88 87 86 86 84 84 84 84 83 83 85 85 84 85 85 84 84 84 83 84 84
62 64 66 67 69 71 73 72 71 70 73 77 80 80 82 84 85 88 90 91 91 92 94 95 96 96 96 96 96 96 97 98 99 99 99 98 97 96 95 94 94 96 97 97 98 98 98 99 99 99 98 98 98 97 95 94 92 90 89 88 88 87 87 88 88 88 87 87 86 86 86 87 85 84 84 85 84 85 85 84 84 83 83 83 84
58 60 63 64 65 68 70 72 74 75 75 78 80 81 83 87 89 90 91 92 91 92 93 95 96 96 95 95 95 95 95 96 96 97 97 96 96 96 96 95 97 99 100 101 101 102 102 102 102 101 101 101 101 101 100 98 95 93 91 90 89 87 87 89 89 87 87 87 86 86 87 87 87 86 85 85 85 85 85 83 83 84 84 83 83
58 58 60 61 63 65 68 70 72 73 76 78 79 80 83 88 92 93 94 94 93 93 93 94 94 94 94 93 92 91 92 92 93 93 92 92 91 92 92 93 95 98 100 101 103 104 105 104 104 103 102 102 103 103 102 101 99 97 96 94 91 90 90 91 90 88 86 86 85 86 86 87 88 88 87 86 86 85 84 83 83 84 84 83 84
59 59 59 60 61 62 64 66 69 71 74 77 80 83 86 89 92 94 94 94 93 92 92 92 93 93 93 92 89 87 85 84 83 83 82 81 81 82 84 87 90 93 97 99 102 103 104 103 103 102 101 101 101 102 102 102 101 100 99 97 95 94 95 95 93 90 87 85 84 85 86 86 88 89 89 88 87 86 84 83 84 84 83 84 85
60 61 59 58 59 61 62 64 67 70 74 78 83 86 89 91 93 93 92 90 89 88 89 90 91 92 93 92 88 84 81 78 76 74 71 69 69 70 73 76 81 87 92 97 99 99 99 99 99 98 97 96 96 98 99 101 101 100 100 98 97 97 99 98 96 93 91 88 86 85 85 86 87 88 89 89 88 87 85 83 84 84 83 84 85
59 60 60 58 59 61 62 64 67 70 74 80 85 88 90 92 94 93 90 86 82 82 84 86 87 89 89 89 88 84 81 78 74 70 66 62 62 63 65 70 76 82 87 91 93 93 93 93 92 91 90 90 91 92 94 96 97 97 97 97 97 99 100 100 99 97 95 92 90 87 86 85 86 87 88 89 89 88 87 85 84 83 83 84 85
57 58 59 59 60 62 63 65 67 70 75 81 85 87 90 92 93 91 87 81 75 74 76 78 80 82 84 85 84 82 78 74 69 65 62 60 60 62 66 71 77 80 81 82 83 84 84 84 83 83 84 84 84 85 86 87 89 90 91 93 95 97 99 99 100 99 97 95 93 90 88 87 86 86 87 87 89 89 88 86 84 82 82 83 84
55 56 57 59 61 62 64 67 69 71 75 81 85 87 88 90 90 86 80 77 74 73 73 73 73 75 77 78 78 75 71 67 64 61 60 60 62 66 71 74 76 76 75 74 75 76 76 76 77 77 78 78 78 77 78 79 80 82 84 86 89 92 94 96 97 98 98 96 94 91 90 89 88 88 88 87 88 89 88 86 84 82 81 82 83
56 55 56 59 62 64 66 70 74 75 77 82 86 87 86 87 86 80 74 73 73 73 73 73 72 72 73 73 71 68 66 64 61 59 59 61 65 70 73 73 73 71 69 68 68 69 70 71 72 72 72 72 71 71 71 72 73 75 77 80 82 85 88 90 92 94 95 96 94 92 91 91 90 89 90 89 88 88 87 86 84 82 81 82 82
57 55 56 60 63 66 69 73 76 77 78 81 85 85 83 85 85 80 74 72 72 72 72 72 72 71 70 69 68 66 64 61 59 58 60 63 68 71 71 69 68 67 64 62 63 64 66 67 67 67 66 66 65 64 64 65 66 68 71 73 76 78 80 83 85 88 90 92 93 91 90 90 90 89 90 89 88 87 87 87 85 83 82 81 82
56 55 58 60 63 68 71 72 73 74 74 76 79 79 80 83 84 80 76 74 73 72 71 71 70 69 68 67 67 65 63 60 58 58 62 65 68 68 66 64 63 61 58 57 58 60 61 61 61 60 60 59 58 57 57 58 60 62 64 67 68 70 73 75 78 81 84 87 89 90 89 89 88 87 88 88 87 88 89 89 87 85 83 81 81
53 53 55 58 61 66 69 68 68 70 71 72 73 72 74 78 80 78 76 74 73 72 71 70 67 66 65 66 65 63 60 58 58 60 63 65 64 63 61 58 56 53 52 52 53 55 55 55 54 54 53 53 52 51 51 52 54 55 58 60 61 63 66 68 70 73 76 80 83 86 87 87 86 85 85 86 87 88 90 90 88 87 84 82 81
47 48 51 53 57 61 63 63 63 65 67 69 68 67 68 72 74 74 74 73 71 70 69 66 64 63 63 62 60 57 56 56 59 61 62 61 59 58 56 52 48 47 47 49 49 49 49 49 50 49 48 49 48 48 48 49 50 51 52 53 55 57 59 62 65 68 71 74 77 80 82 83 83 83 84 85 86 88 90 90 89 88 86 84 81
43 44 46 49 51 54 55 55 57 60 63 64 64 64 66 69 70 71 71 68 65 65 64 62 59 58 57 55 53 53 54 56 59 60 58 57 56 53 50 46 43 43 46 47 46 45 45 46 47 47 47 47 47 46 45 46 47 48 48 48 49 51 54 57 60 63 66 69 71 74 76 77 78 80 82 83 85 88 89 90 89 88 86 84 82
40 40 41 43 45 46 46 47 50 54 57 58 59 61 64 67 68 67 65 62 61 60 59 57 54 52 51 50 50 51 53 55 57 56 55 54 52 47 42 40 40 43 46 45 43 42 43 44 44 45 45 45 44 43 42 43 44 44 44 44 45 47 49 52 55 58 60 63 65 68 70 71 72 74 77 79 82 85 87 88 87 86 85 83 82
36 37 39 40 41 42 43 45 48 51 53 55 57 60 62 63 62 61 60 59 58 58 55 52 50 47 46 46 48 51 52 52 52 52 52 52 47 41 37 36 39 43 44 43 41 40 40 40 41 41 42 42 41 40 40 41 41 40 40 41 42 43 45 47 49 52 54 57 60 63 64 66 67 69 71 74 76 79 82 84 84 84 83 83 83
34 36 37 39 39 40 41 43 46 48 51 53 54 55 56 57 57 57 56 56 56 54 51 48 45 44 44 45 48 50 50 48 48 49 49 47 43 37 35 36 39 41 41 40 40 38 36 36 37 38 39 39 38 38 39 40 39 37 37 38 39 40 41 42 44 46 48 51 54 56 59 61 62 64 66 68 70 73 75 78 80 81 81 82 84
32 33 35 36 36 37 39 41 43 45 46 47 48 50 52 53 53 53 53 52 50 47 44 42 41 43 45 46 46 46 45 44 45 46 45 42 38 35 34 36 39 39 38 37 36 34 33 33 35 36 37 36 35 36 37 38 37 35 35 36 37 37 38 39 40 42 44 45 47 50 52 55 57 59 61 62 64 67 70 72 74 76 77 79 82
29 30 31 31 32 34 36 38 39 40 41 43 45 47 48 48 48 48 47 45 43 40 38 39 41 43 44 43 42 42 41 41 43 43 41 38 35 33 34 36 37 37 35 33 31 30 31 32 33 34 35 33 32 33 35 36 35 33 32 33 34 35 35 36 37 38 39 40 42 44 46 49 51 53 55 57 59 62 64 67 69 71 72 75 78
27 28 28 28 29 31 32 34 35 37 39 41 43 43 43 43 42 42 41 39 37 36 37 39 40 41 41 40 39 38 38 40 41 41 38 36 33 31 32 34 35 34 32 30 28 28 29 31 32 33 32 30 30 31 32 33 32 30 29 30 31 31 32 32 33 34 34 35 37 39 41 43 45 48 50 52 54 57 59 62 65 66 68 70 74
27 27 27 27 27 29 30 32 34 36 37 39 39 39 39 38 37 36 35 34 34 36 37 38 39 38 38 38 37 36 37 39 39 37 35 33 31 30 31 32 31 30 29 28 27 27 29 31 31 31 30 29 28 29 31 31 29 28 27 27 28 28 28 28 28 28 28 30 32 35 36 38 40 42 45 47 49 52 55 58 61 63 65 68 71
25 26 25 25 26 28 29 31 32 34 35 36 36 35 34 32 31 31 31 33 34 35 36 36 37 36 36 35 35 35 36 37 36 34 33 32 29 28 28 28 28 27 26 26 26 28 29 30 29 29 29 28 27 28 29 29 27 25 25 25 25 25 25 25 24 23 24 26 29 31 32 34 36 38 40 42 45 47 50 53 57 60 62 65 67
25 25 25 26 27 28 29 29 30 32 33 33 32 30 29 28 28 29 32 33 33 34 34 35 35 35 33 33 33 34 35 34 33 32 31 30 27 26 25 25 26 26 25 25 26 28 29 28 27 27 28 28 27 27 28 28 26 24 23 23 23 22 22 22 21 20 21 24 26 27 29 31 33 34 36 38 40 43 45 48 51 55 58 60 63
26 27 28 29 29 30 30 30 31 32 32 31 29 27 26 27 28 30 32 32 31 32 33 33 33 32 31 31 31 32 33 32 31 29 29 28 25 24 23 23 24 24 24 25 27 28 27 25 24 25 27 28 27 26 27 26 24 23 23 23 22 22 22 21 18 18 20 22 24 25 27 28 29 31 33 35 37 38 41 43 46 49 52 55 57
29 30 30 30 31 31 32 32 32 32 30 28 26 25 25 27 29 30 30 29 30 31 31 31 31 30 30 30 30 31 31 30 29 28 26 25 23 22 22 22 23 23 25 26 26 24 23 22 22 24 25 26 26 25 25 24 22 22 23 23 22 22 22 20 17 17 18 20 22 23 24 25 26 27 29 31 33 35 37 39 41 44 46 49 51
31 31 31 31 32 33 32 32 32 31 29 26 25 25 27 29 30 29 28 27 28 29 29 29 29 28 28 29 29 29 29 28 27 26 24 22 21 21 21 22 22 23 24 24 23 22 21 21 22 22 23 24 24 24 23 22 21 22 22 22 22 22 22 20 18 17 17 18 19 20 21 22 22 23 25 27 30 31 33 35 37 39 42 44 47
31 31 31 32 32 31 31 31 31 30 27 25 24 27 29 30 29 28 27 26 26 27 27 27 27 27 27 28 28 27 27 26 25 24 22 21 20 20 21 21 22 23 24 23 22 21 21 21 20 20 21 22 22 23 22 22 21 21 20 20 21 21 21 20 18 16 15 15 17 17 18 18 18 19 21 24 26 28 30 32 33 36 38 40 42
31 31 32 32 31 30 30 31 30 28 26 25 26 28 29 28 27 26 26 25 25 26 26 26 26 25 26 27 27 26 25 24 23 22 21 20 20 21 21 22 22 23 23 22 21 21 20 20 19 19 19 20 21 22 22 22 21 20 19 19 20 20 20 19 18 16 14 13 14 15 15 15 15 16 18 21 23 25 27 29 30 31 33 34 36
31 31 31 30 30 30 30 31 30 28 26 26 27 29 28 26 25 25 24 24 25 25 25 25 25 24 25 26 26 24 24 23 22 20 20 20 21 21 22 22 22 22 22 21 20 20 20 19 18 18 18 18 19 21 22 22 21 20 19 19 18 18 18 18 18 16 14 12 12 13 13 13 13 14 15 18 21 23 25 26 27 28 29 30 32
31 31 30 30 30 31 31 31 30 28 26 26 28 28 27 25 25 24 23 23 24 24 24 24 24 24 24 25 25 24 23 22 20 19 19 20 21 22 21 21 21 21 21 20 19 18 18 18 17 17 17 17 18 21 22 22 22 21 20 18 17 17 17 17 16 15 14 12 11 11 12 12 13 13 15 17 19 21 22 23 24 25 27 28 29
33 32 31 31 31 31 31 30 29 27 25 26 28 28 27 25 24 23 22 23 24 24 24 24 24 24 24 25 24 24 22 21 20 19 19 20 21 21 20 20 20 20 19 18 16 15 16 16 16 15 15 16 18 21 23 23 23 22 20 18 16 16 15 15 15 14 13 11 10 10 11 12 13 14 15 16 17 19 20 21 22 23 24 24 26
34 33 32 32 32 31 31 29 28 26 26 26 27 28 27 25 24 23 22 23 23 24 25 24 24 24 24 25 24 24 22 21 20 19 19 20 21 21 19 18 19 18 18 16 14 12 13 15 15 13 13 14 17 21 24 24 24 24 21 19 17 15 15 14 13 13 12 11 11 11 11 12 13 13 14 15 16 17 18 19 20 21 22 23 24
34 33 32 32 31 30 30 29 28 27 26 26 27 27 26 25 24 23 23 23 24 25 26 25 24 24 24 25 25 24 23 21 20 20 20 20 21 20 18 17 17 16 16 15 12 9 10 12 13 12 11 13 16 21 24 25 25 24 23 20 18 17 16 14 13 13 12 12 12 12 11 12 13 13 13 14 14 15 16 18 19 20 21 22 23
35 34 33 32 31 30 30 30 29 27 26 26 27 27 26 25 25 24 24 23 24 25 27 26 25 24 25 26 26 25 23 22 21 20 20 21 20 18 16 15 15 14 14 13 11 8 8 9 10 10 9 11 15 20 23 25 25 25 24 22 20 19 18 17 16 15 14 13 13 13 13 12 13 13 14 14 15 16 16 18 19 20 21 22 23
36 35 33 33 32 31 30 30 29 27 25 26 26 26 26 25 25 25 25 25 25 26 27 27 26 25 25 26 27 26 24 23 22 21 21 21 19 17 16 14 13 11 11 11 9 8 7 8 9 8 8 10 13 18 22 25 26 26 25 24 23 22 22 21 19 18 16 15 15 15 15 14 15 15 16 17 17 18 18 19 20 21 21 22 22
37 35 33 33 32 31 30 30 29 26 26 26 26 26 26 26 26 26 27 26 26 27 28 28 27 26 26 27 28 27 25 24 23 22 22 21 19 16 15 13 11 10 9 8 7 6 6 7 9 9 9 10 11 14 18 22 25 26 25 25 25 25 24 23 21 19 18 17 17 17 17 17 17 18 19 20 20 20 21 21 21 22 22 22 23
Wind_Direction
256 256 255 255 256 256 255 255 254 254 254 254 254 254 252 251 250 250 250 249 249 249 248 248 248 247 247 247 248 248 248 249 249 248 248 248 247 247 247 247 247 247 247 247 246 246 247 247 248 248 249 250 251 251 252 252 251 251 251 251 251 251 249 245 244 245 247 247 247 248 248 249 250 251 249 249 249 251 252 252 250 249 247 247 248
256 255 255 254 254 254 254 254 254 254 253 253 254 254 253 253 252 252 251 251 250 250 249 249 249 249 249 249 249 249 249 250 250 250 250 250 250 249 249 249 248 248 248 248 249 249 249 249 249 249 249 250 251 251 251 252 252 251 251 251 250 250 249 246 244 243 245 247 247 247 248 248 248 249 249 249 248 248 250 251 250 248 247 247 247
256 256 255 254 253 253 253 253 253 253 253 253 253 254 254 254 254 253 253 253 252 252 251 250 250 250 250 250 250 250 251 251 251 250 250 250 251 251 251 251 251 251 250 250 250 250 250 251 251 251 251 251 252 252 252 252 252 252 251 251 250 250 249 248 245 242 243 246 247 247 248 248 248 248 248 248 248 247 247 248 249 249 247 247 248
257 257 256 255 254 254 254 253 253 253 253 253 253 254 254 254 254 254 254 254 254 253 253 252 252 251 251 252 252 252 252 252 252 252 251 251 251 251 251 251 252 252 252 252 252 252 251 252 252 252 252 252 252 253 253 253 253 253 252 251 251 250 250 248 246 243 242 245 247 247 247 247 247 247 247 247 247 247 247 247 248 249 248 248 248
257 257 257 257 256 255 255 255 254 254 253 253 254 254 254 255 255 255 255 254 254 254 254 254 253 253 253 253 253 253 253 253 253 253 253 252 252 251 251 251 252 252 253 253 253 253 253 253 253 253 252 252 253 253 253 253 253 253 253 253 252 251 250 250 248 245 242 243 245 247 247 247 247 247 247 247 247 247 247 247 247 247 248 248 248
255 256 256 257 257 257 256 256 256 256 255 255 254 255 255 256 256 255 255 255 255 255 254 254 254 254 254 254 254 254 254 254 254 254 254 253 253 253 252 252 252 252 252 253 253 253 253 254 254 254 253 253 253 253 253 253 253 253 253 253 253 252 251 251 249 247 245 242 243 246 246 246 246 247 247 247 248 248 248 247 247 246 247 247 248
254 255 256 256 257 257 257 257 257 257 257 257 257 257 257 257 257 256 256 255 255 255 255 255 255 255 255 255 255 255 255 254 254 254 254 254 254 254 254 253 253 253 253 253 253 253 253 253 254 254 254 253 253 253 253 253 253 253 253 252 252 252 252 251 251 249 247 244 243 244 245 245 246 246 247 247 247 248 248 248 247 247 247 248 248
253 255 256 256 257 257 257 257 257 256 257 258 258 258 258 258 257 257 257 256 255 255 255 255 255 255 255 255 255 255 255 255 255 254 254 254 254 254 254 254 254 254 254 254 254 253 253 253 253 254 254 254 254 254 253 253 253 253 253 253 252 252 251 251 251 250 249 247 245 244 245 245 245 246 246 247 247 247 248 248 249 249 248 249 249
252 253 254 255 256 256 256 256 257 257 257 257 257 257 258 258 258 257 257 257 256 256 256 255 255 255 255 255 255 255 255 255 255 255 254 254 254 254 254 255 255 255 255 255 255 254 254 254 254 254 254 254 254 254 254 253 253 252 252 253 253 252 252 251 251 250 250 249 248 246 245 244 245 245 245 246 246 247 247 248 248 249 250 251 251
252 252 252 253 254 255 256 257 259 259 258 257 256 255 255 256 257 257 257 257 257 257 257 257 257 257 257 256 256 256 255 255 255 255 255 255 254 254 254 254 255 255 255 255 255 255 255 255 254 254 254 254 254 254 253 253 253 252 252 252 252 252 252 252 251 250 249 249 249 248 247 245 245 244 244 245 245 246 247 247 248 249 250 251 252
251 251 251 252 252 253 255 257 260 261 260 258 257 256 255 255 255 256 257 257 258 258 258 259 259 259 258 258 257 257 256 256 255 255 255 255 255 255 255 255 255 255 255 255 255 256 256 255 255 255 254 254 254 254 254 254 253 252 252 251 251 250 251 251 252 251 250 249 249 249 249 248 246 245 244 244 245 245 246 247 247 248 249 250 251
249 250 250 250 251 252 252 253 255 258 261 261 259 258 257 256 255 255 256 257 257 258 258 259 259 259 259 259 259 258 257 257 257 256 256 256 255 255 256 256 256 256 256 256 256 256 256 256 256 255 255 255 254 254 254 254 253 253 252 252 251 250 250 249 250 251 251 249 248 248 249 249 248 247 245 244 245 245 245 246 247 248 248 249 250
248 249 249 250 250 250 251 250 248 250 254 258 259 259 258 258 257 256 255 255 255 256 256 257 257 258 258 259 259 259 259 259 258 258 258 258 257 257 256 257 257 257 257 257 257 257 257 257 256 256 256 255 255 254 254 254 253 253 252 252 251 251 251 250 249 250 250 250 249 248 247 247 248 249 248 246 245 245 245 245 246 247 247 248 249
249 248 248 249 249 249 250 250 250 250 251 253 255 256 256 257 258 257 255 254 254 254 254 254 255 255 255 256 257 259 260 261 261 261 261 261 260 259 258 258 258 258 258 258 258 258 258 257 257 257 256 256 255 255 255 254 254 254 253 252 252 252 251 251 251 250 250 250 250 249 248 247 246 247 248 248 247 246 245 245 245 246 247 248 248
251 249 248 248 248 249 248 248 248 249 250 250 251 252 254 255 257 258 257 255 254 254 254 253 254 254 254 255 256 257 259 260 261 262 262 262 262 262 262 261 260 259 259 258 258 258 258 258 257 257 257 256 256 256 255 255 254 254 254 254 253 253 252 252 251 251 251 250 250 250 250 249 247 247 247 247 247 247 247 246 246 246 247 248 249
251 250 249 247 247 247 247 245 243 242 244 246 248 250 252 253 254 256 257 257 255 255 254 254 254 254 255 255 255 256 257 258 259 260 261 262 263 264 264 264 262 262 262 261 260 259 258 258 257 257 256 256 256 256 256 255 255 255 255 255 255 254 254 253 252 251 251 251 250 250 250 250 249 248 247 247 247 247 247 247 247 247 246 247 248
250 249 249 247 245 245 245 245 243 242 243 245 247 249 251 252 252 253 255 256 256 256 256 256 256 257 257 257 257 257 257 258 258 259 259 261 262 263 264 264 264 264 264 263 262 261 260 259 257 256 256 256 256 256 256 256 256 256 256 255 255 255 255 254 253 252 251 250 250 250 250 251 251 249 248 248 247 246 246 246 247 247 247 247 247
253 250 248 246 244 243 243 244 243 243 243 245 248 249 251 251 251 251 252 254 256 257 258 259 260 260 261 261 260 260 260 260 260 260 261 261 262 262 263 263 263 264 264 263 262 262 261 260 259 258 257 256 256 256 256 256 256 256 256 256 255 255 255 255 254 253 252 251 250 250 250 250 251 250 249 248 248 247 245 245 245 246 246 246 247
256 253 250 247 246 244 242 242 242 242 242 243 245 247 249 250 251 251 251 252 254 256 259 261 262 263 264 264 264 264 263 263 264 264 264 263 263 262 261 261 261 261 262 262 262 262 262 261 261 260 259 258 257 256 256 256 256 255 255 255 255 255 255 254 254 254 253 251 250 250 249 249 249 250 250 249 248 247 246 245 244 245 245 245 245
257 256 253 250 248 246 243 242 242 242 241 242 243 244 246 249 251 252 252 252 253 255 257 260 262 264 265 267 268 269 270 271 272 271 270 268 266 264 262 261 260 259 260 260 261 262 263 263 263 262 262 261 259 258 258 257 256 255 254 254 254 254 254 254 254 253 253 252 250 249 248 248 248 248 249 250 249 248 246 244 244 244 244 244 245
253 254 254 251 249 247 245 243 242 242 242 242 243 245 246 249 251 253 255 255 255 255 256 258 260 263 265 268 270 273 275 276 276 276 275 274 271 267 265 262 260 258 258 260 261 263 264 265 265 265 264 263 261 260 259 258 257 256 255 254 253 252 252 253 253 253 252 251 250 249 248 247 247 247 247 248 249 248 247 245 244 243 243 243 244
250 250 251 250 248 247 246 244 242 240 241 243 245 246 249 251 253 255 257 259 259 258 258 259 260 262 264 267 269 272 274 275 276 277 277 276 273 270 267 264 261 259 260 261 263 264 265 266 266 266 265 264 262 261 260 259 258 257 255 254 252 251 251 251 251 252 252 251 249 249 248 247 247 247 247 247 248 248 247 246 244 244 243 243 243
250 248 248 248 248 246 245 245 243 240 240 242 245 247 249 252 255 257 258 259 260 261 261 261 262 263 264 266 268 270 272 275 277 277 276 276 275 272 269 265 263 263 263 264 265 266 267 267 266 265 265 264 263 262 261 260 259 258 256 254 252 251 251 250 250 250 251 251 250 249 248 247 246 246 247 247 247 248 248 247 245 244 243 243 243
253 250 248 247 246 245 243 242 242 240 238 240 243 246 249 252 257 260 260 260 260 262 262 263 264 264 265 267 269 272 274 276 276 276 276 276 275 271 268 266 266 266 267 267 267 267 268 267 267 266 266 265 265 264 263 261 259 258 257 255 253 252 251 250 249 249 249 250 250 249 248 247 246 245 246 246 246 247 248 248 247 245 244 243 243
254 251 248 245 244 243 242 241 241 241 241 241 245 248 250 253 257 261 262 262 262 262 262 263 264 266 268 270 272 274 275 275 275 277 277 275 270 267 266 266 267 268 269 269 268 267 267 267 267 267 267 266 265 264 263 261 259 258 257 256 254 253 251 250 249 249 249 249 249 249 248 247 246 245 245 245 246 246 247 248 247 246 244 243 243
252 249 246 243 242 241 242 242 243 244 245 245 246 248 249 252 256 260 261 261 261 262 262 263 265 267 269 271 273 274 274 275 277 277 274 268 265 264 265 266 267 269 269 268 267 266 266 267 267 267 266 266 265 263 262 260 259 257 256 256 255 254 253 252 250 249 248 248 248 248 248 247 246 245 245 245 245 246 246 246 246 246 244 243 243
251 248 245 243 241 241 243 244 244 245 246 247 247 247 248 250 253 256 258 259 259 260 262 264 266 267 269 270 271 272 273 276 276 272 267 264 264 266 266 267 268 269 269 267 266 265 266 266 266 265 266 266 265 264 263 261 259 258 257 256 255 254 253 252 251 250 249 248 248 248 247 247 246 245 245 244 244 245 245 245 245 245 244 243 243
250 248 245 243 242 242 244 245 245 245 246 247 248 248 247 249 251 254 256 257 258 259 261 264 266 267 267 267 269 272 274 274 270 265 263 264 266 267 268 269 270 269 268 266 264 264 264 265 266 266 267 267 267 266 264 263 262 260 258 256 255 254 253 252 251 250 249 249 248 248 247 247 246 245 244 244 243 243 244 244 244 244 244 243 242
248 246 244 244 243 244 245 246 247 247 247 247 247 247 247 247 250 252 255 258 259 261 262 264 265 265 266 268 271 272 271 267 263 263 264 265 266 267 269 270 269 267 265 264 264 265 265 266 267 268 268 268 267 266 265 264 263 260 259 257 255 254 252 251 251 250 250 250 249 249 249 248 246 245 245 244 243 243 243 243 243 243 243 243 242
246 246 245 245 244 244 244 243 242 242 243 244 244 244 244 246 248 252 256 259 261 262 263 264 265 267 270 271 270 266 262 261 262 264 264 265 266 267 268 268 266 264 264 265 265 266 267 267 268 268 268 268 268 267 266 264 263 261 259 258 256 254 252 251 251 250 250 250 250 250 250 249 247 246 245 244 243 243 243 243 243 243 243 243 242
242 241 240 239 238 237 236 235 235 235 236 238 239 240 242 245 249 253 257 259 261 262 264 266 268 270 270 267 263 259 258 259 261 262 263 265 267 267 265 263 262 263 265 267 268 267 266 266 267 267 268 268 268 268 267 265 263 262 261 259 257 255 253 252 251 251 250 250 249 249 249 249 247 246 245 244 244 243 243 243 243 243 242 242 242
235 234 233 232 232 231 232 232 233 234 235 237 239 242 244 247 250 254 257 258 260 263 265 267 268 266 262 258 257 257 257 257 257 259 261 264 266 267 265 263 262 263 265 267 268 268 267 266 266 266 266 267 268 268 267 265 264 263 262 261 259 257 255 254 252 251 250 250 249 249 249 248 248 247 245 244 244 243 243 243 243 242 241 240 241
229 229 229 229 229 229 230 231 233 235 237 239 241 243 246 248 251 253 256 259 261 263 265 265 262 259 256 255 254 255 256 257 257 258 260 262 264 265 265 264 264 266 266 265 267 268 268 266 266 265 265 266 266 266 265 264 264 263 261 259 258 257 256 254 253 252 251 250 249 249 248 248 247 247 245 244 243 242 242 242 242 241 240 239 239
229 229 229 229 228 228 230 231 233 235 237 239 241 243 246 248 251 254 257 260 262 262 262 260 257 255 254 254 253 254 255 256 258 259 261 262 262 263 264 265 266 267 267 266 266 266 266 266 265 265 265 265 264 263 262 262 262 260 258 256 255 255 254 253 252 251 250 250 249 249 248 247 247 245 244 243 241 241 240 240 240 240 239 238 238
228 228 228 228 228 228 230 232 234 236 238 240 243 245 248 251 254 257 259 260 261 259 257 255 254 254 254 253 253 253 254 255 257 259 261 262 263 264 264 265 266 267 268 269 267 266 265 265 265 265 266 264 262 261 260 260 258 256 254 252 251 251 251 251 250 249 249 249 248 248 248 247 246 245 244 242 241 239 238 238 238 237 237 236 236
227 228 228 227 226 227 229 232 235 237 241 243 246 249 252 255 256 258 259 259 258 256 254 252 252 253 254 254 254 253 253 254 256 259 261 263 265 265 264 263 265 267 267 268 267 267 265 264 265 265 265 263 260 258 257 257 256 253 251 250 249 249 249 249 248 247 247 247 248 247 247 246 246 244 243 242 240 239 237 236 236 235 234 234 234
228 229 229 228 228 229 232 236 239 242 245 248 251 253 255 256 257 258 259 258 256 255 254 253 253 252 253 253 253 252 253 254 256 259 262 265 265 264 262 263 264 265 265 266 266 265 264 263 264 265 264 262 258 255 254 255 254 252 250 250 249 249 249 248 247 246 246 248 248 247 246 245 244 243 242 241 239 238 237 236 235 234 233 232 233
228 230 232 233 235 238 241 244 247 249 252 254 255 257 258 260 261 260 258 256 255 255 255 254 253 252 251 250 251 252 253 254 257 260 263 265 264 261 260 261 262 263 264 265 264 263 262 262 262 262 262 260 257 253 252 253 253 252 251 250 249 249 250 250 248 247 248 249 248 247 246 244 242 241 240 239 238 237 236 236 235 235 234 233 232
231 234 237 239 242 245 248 251 253 255 256 258 260 262 265 265 264 260 258 257 257 256 254 252 251 250 248 247 248 250 253 256 258 260 262 263 262 259 257 258 261 263 264 264 262 261 262 262 261 259 258 258 256 254 252 252 252 251 251 250 249 249 250 250 249 250 250 250 249 248 247 244 242 240 239 237 236 235 234 234 234 234 234 234 233
235 237 240 243 246 249 252 254 257 259 260 262 265 267 268 266 264 262 261 259 258 254 251 250 248 247 246 246 246 249 252 256 259 260 260 259 258 257 257 260 263 265 266 264 263 263 264 264 261 257 255 255 255 253 251 251 250 248 248 248 247 248 249 249 249 250 251 250 248 247 247 245 242 241 239 238 236 234 233 232 231 231 231 232 232
239 242 244 246 248 251 254 257 260 261 263 266 268 270 269 268 266 265 264 261 257 252 249 247 245 244 244 245 246 248 252 256 258 259 258 256 254 255 258 262 265 267 268 267 268 268 268 264 259 255 253 252 252 250 249 248 245 244 244 245 246 246 246 246 246 248 250 248 246 244 244 243 241 239 239 238 237 235 233 231 229 228 228 228 229
242 244 245 247 249 252 256 259 261 262 265 268 271 272 270 269 268 267 265 260 254 249 245 243 242 241 241 242 245 248 251 254 255 256 256 255 255 258 261 265 267 269 270 271 272 272 270 265 259 254 251 249 247 245 244 242 240 239 239 241 242 243 242 241 241 244 246 245 242 240 239 238 236 236 237 237 235 234 232 230 227 226 226 226 226
242 244 246 249 252 255 258 260 262 265 268 271 272 271 269 268 268 267 263 256 250 245 242 240 238 237 238 241 245 248 250 251 251 251 252 254 258 261 264 267 269 271 272 274 274 273 270 265 260 255 251 246 241 238 236 235 233 231 232 236 238 239 237 236 236 239 240 238 235 234 232 230 229 231 234 235 234 231 228 226 225 223 223 224 224
243 246 248 252 255 258 261 264 266 269 271 273 273 270 268 266 266 263 258 251 246 242 239 237 235 234 236 241 244 245 246 247 246 246 249 253 258 262 265 268 271 273 274 275 275 274 271 267 261 256 251 244 236 230 228 227 225 223 224 229 234 234 232 231 232 235 235 232 228 226 225 221 219 221 226 228 228 226 224 221 219 218 218 218 219
245 247 250 254 257 260 263 265 267 270 272 273 272 269 267 264 261 257 251 245 241 239 237 235 233 232 235 239 242 243 242 242 242 243 247 253 258 262 266 270 273 274 275 276 276 276 272 267 261 255 249 239 229 223 221 219 218 217 218 223 226 226 225 226 229 232 233 229 224 221 219 215 210 208 212 216 218 218 217 215 213 212 212 213 213
245 247 250 253 256 259 262 264 267 270 272 271 270 269 267 263 258 251 243 239 237 237 235 233 231 232 234 237 239 239 238 237 238 240 246 253 258 263 267 272 275 277 276 276 277 276 272 266 260 253 245 232 221 216 214 213 212 211 213 215 217 218 218 220 224 228 230 229 224 219 217 214 209 204 203 206 208 209 209 208 206 206 206 206 207
243 246 249 252 255 258 261 264 268 270 270 268 268 268 266 262 256 247 238 233 233 235 234 231 229 230 233 234 235 236 235 234 234 239 245 252 258 262 267 273 277 278 278 278 279 276 270 264 260 252 241 227 215 210 209 209 208 208 208 208 209 209 211 212 216 221 224 226 225 222 218 216 213 208 203 202 202 203 203 202 202 201 200 200 202
244 246 249 252 255 258 262 265 267 267 266 265 266 266 265 262 255 246 237 230 229 232 233 231 228 229 230 231 231 231 231 232 233 237 244 251 256 261 268 273 277 279 281 282 283 277 265 261 259 252 237 221 211 207 207 207 207 206 206 205 204 205 205 207 211 217 219 220 221 222 220 219 216 212 207 204 203 202 201 201 201 201 201 201 203
245 247 249 252 254 257 260 263 263 261 260 261 263 265 264 261 255 247 239 231 227 228 231 231 229 227 227 227 227 227 228 230 233 237 244 249 254 260 266 270 274 280 285 287 285 275 257 251 253 251 237 220 210 206 205 206 207 207 206 205 205 206 206 207 211 216 220 220 219 217 217 217 216 213 209 206 204 203 202 202 202 202 203 205 206
245 247 249 252 254 256 258 260 259 256 255 257 260 262 262 259 253 247 241 233 227 226 228 230 229 226 224 224 225 224 225 227 231 236 242 248 253 258 263 266 270 280 286 286 279 265 245 231 229 229 224 218 213 210 207 207 207 208 208 208 209 210 212 212 213 215 219 223 222 217 213 211 210 209 209 207 205 204 203 203 203 204 205 206 207
246 247 249 251 252 254 256 258 257 253 252 254 257 259 259 257 252 247 242 235 229 226 226 228 228 226 223 222 223 222 222 224 229 234 240 245 250 254 259 263 269 280 285 278 264 250 235 222 213 208 205 206 211 214 213 212 211 211 212 213 214 216 217 217 217 215 215 218 219 216 212 208 207 206 207 208 207 206 205 205 205 205 206 207 209
Height
10513 10514 10516 10518 10520 10522 10524 10527 10528 10530 10530 10531 10534 10536 10539 10541 10542 10544 10546 10548 10550 10551 10553 10555 10557 10558 10560 10562 10562 10563 10564 10565 10567 10569 10571 10573 10575 10576 10578 10581 10583 10585 10587 10588 10590 10591 10592 10593 10595 10597 10599 10600 10601 10602 10605 10607 10610 10612 10614 10617 10619 10622 10626 10630 10634 10633 10629 10630 10635 10636 10638 10643 10646 10647 10648 10650 10652 10653 10655 10656 10657 10658 10660 10661 10662
10502 10504 10506 10508 10510 10511 10514 10516 10518 10519 10520 10521 10524 10526 10529 10532 10534 10536 10538 10541 10542 10544 10546 10547 10549 10551 10553 10554 10555 10556 10557 10558 10560 10562 10564 10565 10567 10568 10570 10572 10574 10576 10578 10580 10581 10583 10584 10584 10586 10588 10591 10592 10592 10593 10596 10598 10601 10603 10605 10608 10610 10612 10616 10621 10625 10627 10624 10622 10625 10628 10630 10635 10638 10638 10640 10643 10645 10647 10649 10649 10650 10651 10654 10655 10655
10492 10493 10495 10498 10500 10501 10503 10506 10508 10509 10510 10512 10514 10517 10520 10523 10525 10528 10530 10532 10535 10536 10538 10539 10541 10543 10544 10545 10547 10548 10549 10551 10552 10554 10556 10558 10559 10560 10562 10563 10565 10567 10568 10570 10572 10574 10574 10575 10576 10579 10582 10583 10583 10584 10586 10589 10591 10594 10595 10598 10601 10602 10605 10611 10616 10620 10619 10615 10616 10620 10622 10625 10629 10630 10632 10636 10637 10639 10641 10641 10643 10645 10647 10649 10650
10482 10482 10484 10487 10489 10492 10493 10495 10498 10499 10501 10503 10505 10508 10511 10514 10516 10519 10521 10524 10526 10528 10529 10531 10533 10534 10535 10536 10538 10539 10541 10542 10544 10546 10548 10550 10551 10553 10554 10555 10556 10557 10559 10560 10562 10563 10565 10565 10566 10569 10571 10573 10573 10574 10577 10579 10581 10583 10585 10587 10591 10593 10595 10601 10606 10610 10613 10610 10608 10610 10613 10617 10619 10621 10624 10628 10629 10630 10632 10634 10636 10638 10641 10643 10644
10472 10471 10473 10475 10479 10482 10484 10485 10487 10489 10491 10494 10497 10501 10504 10506 10507 10510 10512 10515 10517 10518 10520 10522 10524 10525 10526 10527 10529 10530 10532 10534 10536 10538 10539 10541 10542 10544 10545 10547 10548 10549 10550 10551 10552 10553 10554 10555 10555 10558 10561 10562 10563 10563 10566 10569 10571 10573 10575 10576 10580 10583 10585 10590 10595 10600 10604 10605 10602 10601 10605 10608 10611 10612 10615 10618 10620 10622 10624 10626 10628 10630 10633 10635 10637
10462 10460 10461 10464 10468 10472 10473 10474 10476 10479 10481 10485 10489 10493 10495 10497 10498 10500 10503 10505 10507 10509 10511 10512 10514 10515 10517 10518 10519 10521 10523 10524 10526 10528 10529 10531 10533 10534 10536 10538 10539 10540 10540 10541 10542 10543 10544 10545 10545 10547 10550 10552 10552 10553 10555 10558 10560 10562 10564 10566 10568 10572 10575 10578 10583 10589 10593 10597 10596 10594 10596 10599 10602 10603 10605 10608 10611 10613 10615 10617 10619 10621 10623 10626 10629
10452 10450 10451 10454 10458 10461 10462 10464 10466 10469 10472 10476 10480 10484 10486 10487 10488 10489 10492 10494 10496 10498 10500 10502 10503 10505 10507 10508 10510 10511 10513 10515 10516 10518 10519 10521 10522 10524 10526 10528 10529 10529 10530 10531 10532 10533 10534 10535 10535 10536 10538 10541 10542 10542 10544 10547 10549 10551 10553 10555 10557 10561 10565 10568 10572 10577 10582 10586 10588 10587 10587 10590 10593 10595 10596 10599 10603 10604 10605 10607 10610 10612 10615 10618 10621
10442 10442 10442 10445 10448 10451 10452 10452 10454 10459 10463 10467 10471 10474 10475 10475 10476 10477 10479 10481 10483 10486 10488 10490 10492 10494 10496 10498 10499 10501 10503 10504 10505 10507 10508 10510 10511 10513 10515 10517 10518 10519 10519 10520 10521 10523 10524 10525 10525 10526 10527 10529 10531 10532 10533 10535 10538 10540 10542 10544 10546 10550 10554 10557 10561 10565 10570 10575 10578 10578 10578 10581 10584 10586 10587 10590 10593 10594 10595 10598 10601 10603 10606 10610 10612
10433 10433 10433 10435 10436 10439 10440 10440 10442 10449 10453 10456 10460 10463 10463 10463 10464 10465 10466 10468 10470 10473 10475 10478 10480 10483 10485 10486 10488 10490 10491 10493 10493 10495 10496 10498 10500 10503 10504 10505 10506 10507 10508 10509 10510 10511 10513 10514 10515 10516 10516 10518 10520 10521 10522 10523 10527 10530 10531 10532 10536 10539 10542 10546 10549 10553 10558 10563 10566 10567 10569 10572 10574 10576 10577 10580 10583 10583 10585 10590 10592 10593 10596 10601 10604
10422 10423 10425 10426 10426 10427 10429 10431 10435 10439 10440 10443 10448 10450 10451 10451 10452 10453 10453 10455 10458 10461 10464 10466 10469 10471 10473 10475 10476 10478 10479 10479 10480 10481 10484 10487 10489 10491 10492 10493 10494 10495 10497 10497 10498 10499 10501 10503 10504 10505 10505 10507 10508 10510 10511 10512 10515 10518 10520 10521 10525 10528 10530 10534 10537 10541 10545 10551 10554 10556 10560 10563 10564 10565 10567 10569 10571 10574 10577 10580 10583 10585 10589 10592 10593
10411 10412 10414 10416 10417 10418 10422 10427 10430 10427 10425 10428 10432 10434 10437 10440 10441 10441 10442 10444 10447 10450 10453 10456 10458 10459 10461 10462 10463 10464 10465 10465 10466 10469 10472 10475 10477 10478 10479 10480 10482 10483 10484 10485 10486 10487 10488 10490 10492 10492 10493 10494 10496 10497 10499 10500 10503 10507 10509 10510 10513 10517 10520 10522 10525 10528 10533 10539 10543 10545 10549 10553 10552 10553 10557 10559 10560 10564 10567 10570 10573 10577 10580 10582 10583
10400 10401 10403 10405 10407 10410 10413 10420 10423 10416 10411 10413 10416 10418 10422 10426 10428 10430 10432 10434 10436 10438 10441 10443 10445 10446 10448 10449 10449 10450 10450 10451 10454 10457 10459 10461 10464 10466 10468 10469 10470 10471 10472 10474 10475 10475 10476 10477 10479 10480 10480 10481 10483 10485 10486 10488 10490 10494 10497 10499 10501 10505 10508 10511 10514 10516 10520 10526 10531 10535 10538 10540 10539 10541 10545 10548 10549 10553 10558 10561 10565 10567 10569 10571 10573
10389 10391 10393 10394 10397 10399 10401 10406 10409 10405 10399 10399 10401 10404 10407 10409 10411 10415 10419 10422 10423 10425 10427 10429 10431 10433 10434 10434 10434 10434 10436 10438 10441 10444 10446 10449 10451 10454 10456 10457 10458 10459 10460 10461 10462 10463 10463 10464 10465 10467 10467 10468 10470 10471 10473 10475 10477 10480 10484 10488 10490 10493 10496 10500 10504 10505 10508 10513 10519 10524 10525 10527 10529 10530 10532 10536 10540 10543 10548 10552 10554 10556 10558 10561 10563
10379 10382 10383 10383 10385 10388 10390 10394 10399 10397 10392 10389 10390 10391 10393 10394 10395 10399 10404 10407 10409 10410 10412 10414 10417 10418 10419 10419 10419 10420 10423 10426 10428 10431 10434 10436 10438 10442 10444 10446 10448 10448 10448 10448 10449 10450 10450 10451 10452 10454 10454 10454 10456 10457 10459 10462 10463 10466 10470 10475 10479 10481 10485 10489 10492 10494 10497 10501 10507 10512 10511 10513 10518 10519 10519 10524 10530 10533 10537 10541 10543 10546 10549 10551 10554
10369 10371 10374 10374 10375 10377 10380 10385 10389 10388 10383 10380 10378 10379 10380 10381 10381 10384 10387 10391 10394 10396 10398 10400 10402 10403 10405 10406 10408 10410 10412 10414 10417 10419 10420 10422 10425 10428 10431 10433 10435 10435 10435 10435 10435 10436 10436 10437 10438 10439 10440 10441 10441 10443 10446 10448 10451 10454 10458 10462 10466 10469 10473 10476 10479 10482 10486 10489 10495 10499 10499 10500 10506 10509 10508 10513 10519 10522 10525 10529 10533 10536 10540 10543 10545
10359 10360 10362 10364 10365 10366 10368 10372 10373 10371 10368 10367 10366 10368 10370 10370 10369 10370 10372 10376 10380 10382 10384 10386 10387 10390 10393 10395 10397 10398 10400 10403 10405 10406 10408 10410 10412 10414 10417 10419 10421 10421 10420 10420 10420 10420 10420 10421 10423 10424 10425 10426 10426 10428 10431 10434 10439 10443 10446 10450 10454 10457 10461 10462 10464 10468 10473 10477 10482 10486 10487 10488 10492 10497 10499 10501 10507 10511 10513 10518 10523 10526 10530 10533 10534
10348 10349 10351 10353 10354 10355 10356 10358 10358 10358 10358 10356 10356 10359 10360 10358 10357 10358 10359 10361 10365 10369 10371 10373 10375 10378 10381 10383 10385 10387 10389 10391 10392 10394 10396 10398 10400 10402 10404 10406 10406 10405 10404 10404 10403 10403 10403 10403 10405 10407 10410 10411 10412 10414 10416 10420 10426 10430 10434 10438 10441 10445 10448 10446 10448 10455 10459 10463 10469 10473 10476 10477 10479 10484 10487 10489 10494 10497 10502 10508 10512 10514 10517 10521 10523
10337 10338 10340 10341 10343 10344 10345 10346 10348 10349 10350 10348 10347 10348 10348 10345 10344 10346 10348 10351 10353 10357 10360 10362 10364 10367 10369 10372 10375 10377 10378 10379 10380 10383 10385 10388 10390 10392 10392 10392 10391 10389 10388 10388 10386 10386 10386 10386 10387 10390 10394 10396 10397 10399 10402 10406 10412 10417 10421 10424 10429 10433 10433 10431 10433 10440 10445 10450 10456 10460 10463 10466 10467 10470 10473 10477 10480 10483 10491 10498 10499 10500 10506 10511 10512
10325 10326 10328 10331 10333 10335 10336 10337 10339 10340 10340 10339 10337 10336 10335 10333 10332 10334 10338 10342 10345 10347 10350 10351 10353 10354 10355 10358 10361 10364 10366 10368 10370 10372 10375 10377 10378 10379 10379 10378 10377 10375 10373 10372 10370 10369 10369 10371 10372 10374 10378 10381 10383 10385 10387 10390 10396 10401 10405 10410 10415 10418 10416 10415 10419 10426 10431 10437 10443 10446 10450 10453 10455 10456 10459 10462 10466 10471 10478 10485 10486 10488 10495 10498 10498
10314 10315 10318 10322 10324 10325 10327 10329 10330 10330 10328 10326 10324 10322 10322 10322 10322 10324 10327 10332 10337 10340 10341 10341 10342 10343 10343 10345 10347 10350 10353 10356 10358 10359 10361 10363 10364 10364 10364 10363 10362 10360 10358 10356 10355 10356 10356 10357 10358 10360 10363 10366 10368 10370 10371 10373 10378 10384 10389 10395 10401 10402 10399 10400 10406 10411 10416 10422 10427 10431 10435 10439 10441 10444 10446 10448 10452 10457 10464 10470 10473 10477 10482 10485 10486
10304 10305 10309 10312 10314 10315 10317 10319 10319 10319 10317 10314 10312 10311 10311 10311 10311 10313 10318 10324 10329 10333 10334 10334 10335 10335 10336 10336 10337 10339 10341 10343 10345 10345 10347 10348 10349 10349 10349 10347 10345 10345 10344 10343 10344 10345 10345 10345 10346 10347 10348 10350 10351 10352 10354 10356 10360 10367 10374 10379 10384 10384 10383 10386 10391 10394 10399 10405 10410 10415 10421 10424 10427 10430 10433 10435 10438 10441 10447 10454 10460 10465 10470 10473 10475
10294 10296 10298 10301 10303 10305 10307 10308 10309 10309 10307 10304 10303 10303 10303 10303 10303 10306 10312 10317 10322 10325 10326 10327 10328 10328 10329 10329 10329 10331 10332 10333 10334 10335 10335 10336 10336 10335 10333 10331 10329 10330 10333 10335 10334 10334 10335 10335 10334 10333 10333 10334 10336 10338 10340 10343 10346 10352 10356 10360 10363 10366 10368 10372 10375 10377 10382 10389 10394 10400 10407 10410 10414 10417 10419 10423 10425 10426 10431 10439 10447 10453 10458 10462 10464
10282 10286 10289 10290 10292 10294 10297 10297 10297 10298 10297 10295 10294 10295 10296 10295 10296 10300 10306 10311 10313 10315 10317 10318 10319 10320 10320 10320 10321 10322 10323 10324 10324 10325 10325 10325 10324 10321 10318 10317 10317 10319 10323 10326 10326 10325 10324 10323 10322 10321 10320 10321 10323 10326 10329 10331 10333 10335 10338 10342 10346 10349 10353 10358 10361 10363 10367 10372 10378 10386 10392 10396 10400 10403 10406 10410 10412 10414 10418 10426 10434 10441 10446 10450 10453
10270 10275 10279 10280 10280 10282 10285 10283 10281 10283 10285 10284 10283 10285 10288 10289 10289 10293 10300 10304 10306 10307 10308 10309 10310 10311 10311 10312 10313 10314 10315 10315 10315 10315 10316 10315 10312 10308 10306 10307 10308 10310 10313 10317 10317 10315 10313 10311 10310 10309 10310 10311 10313 10315 10318 10319 10320 10322 10323 10327 10331 10334 10338 10343 10347 10350 10353 10357 10362 10370 10375 10379 10384 10389 10392 10395 10400 10404 10408 10414 10421 10428 10433 10437 10440
10258 10264 10266 10267 10268 10270 10270 10269 10268 10272 10276 10277 10276 10278 10282 10283 10282 10286 10292 10295 10297 10299 10300 10300 10301 10302 10303 10304 10305 10306 10306 10306 10306 10306 10306 10304 10301 10298 10298 10299 10299 10301 10305 10307 10307 10305 10303 10301 10300 10300 10300 10301 10303 10305 10306 10307 10308 10310 10311 10313 10317 10321 10325 10329 10333 10336 10340 10343 10346 10353 10359 10364 10369 10375 10378 10383 10389 10394 10398 10402 10407 10413 10419 10425 10428
10246 10250 10252 10254 10256 10256 10256 10258 10260 10264 10268 10271 10272 10274 10277 10277 10277 10280 10283 10287 10289 10291 10292 10292 10293 10295 10296 10297 10298 10298 10297 10297 10298 10298 10295 10293 10291 10290 10291 10292 10293 10294 10297 10297 10296 10294 10293 10292 10291 10291 10291 10292 10293 10295 10296 10296 10298 10299 10300 10302 10305 10310 10313 10316 10320 10324 10327 10330 10333 10338 10344 10349 10355 10361 10366 10372 10379 10383 10385 10388 10394 10399 10406 10413 10417
10235 10238 10241 10243 10244 10245 10246 10251 10254 10257 10259 10262 10265 10269 10272 10273 10272 10274 10276 10279 10282 10284 10284 10285 10287 10289 10290 10290 10290 10290 10290 10290 10289 10287 10284 10283 10283 10283 10284 10285 10287 10287 10288 10287 10286 10285 10285 10284 10283 10283 10283 10284 10285 10286 10287 10287 10288 10290 10291 10293 10296 10299 10302 10305 10308 10312 10315 10317 10320 10324 10328 10334 10342 10349 10354 10360 10366 10369 10371 10375 10381 10387 10393 10400 10405
10227 10229 10231 10233 10235 10236 10240 10244 10248 10250 10252 10254 10257 10262 10265 10266 10266 10268 10270 10272 10274 10276 10278 10279 10281 10282 10283 10283 10283 10283 10282 10281 10278 10276 10275 10276 10276 10276 10277 10278 10280 10280 10279 10278 10278 10278 10278 10276 10276 10276 10276 10276 10277 10278 10279 10279 10280 10281 10282 10285 10288 10290 10292 10294 10297 10299 10302 10304 10307 10311 10315 10322 10330 10336 10341 10346 10351 10354 10357 10362 10368 10373 10379 10387 10395
10217 10219 10222 10225 10227 10230 10234 10239 10242 10244 10245 10247 10251 10255 10256 10258 10260 10262 10263 10264 10267 10269 10270 10272 10274 10275 10275 10276 10276 10275 10273 10270 10268 10268 10268 10268 10269 10270 10271 10272 10273 10272 10270 10270 10271 10271 10271 10270 10269 10269 10269 10269 10269 10270 10272 10272 10272 10273 10275 10277 10279 10281 10282 10284 10287 10289 10291 10295 10298 10301 10305 10311 10318 10323 10328 10333 10338 10340 10344 10349 10355 10361 10368 10376 10384
10210 10213 10216 10219 10222 10225 10229 10233 10235 10236 10238 10241 10244 10246 10247 10250 10253 10255 10256 10258 10260 10261 10262 10264 10266 10268 10268 10267 10267 10265 10264 10262 10261 10261 10261 10261 10262 10264 10266 10267 10266 10264 10262 10263 10264 10264 10264 10263 10263 10263 10262 10262 10262 10263 10264 10264 10264 10266 10268 10269 10271 10273 10274 10276 10278 10280 10283 10286 10289 10291 10295 10301 10306 10311 10315 10320 10324 10328 10332 10338 10344 10351 10358 10366 10373
10206 10209 10211 10213 10216 10218 10221 10224 10226 10228 10230 10232 10235 10237 10240 10243 10247 10249 10251 10252 10252 10253 10256 10258 10260 10260 10260 10259 10257 10256 10256 10257 10256 10254 10254 10254 10255 10258 10261 10261 10259 10257 10256 10256 10257 10258 10258 10257 10257 10256 10256 10255 10256 10257 10257 10257 10258 10259 10261 10262 10264 10265 10267 10269 10271 10273 10276 10278 10280 10282 10286 10290 10295 10299 10303 10308 10312 10317 10322 10328 10334 10341 10349 10355 10360
10201 10202 10204 10207 10210 10212 10215 10218 10219 10221 10223 10226 10229 10233 10236 10239 10242 10243 10244 10245 10246 10248 10250 10252 10253 10252 10251 10250 10249 10249 10250 10251 10250 10248 10247 10248 10250 10253 10255 10254 10252 10250 10250 10251 10251 10251 10252 10251 10250 10250 10250 10250 10250 10251 10250 10251 10252 10254 10255 10256 10258 10259 10261 10262 10264 10266 10268 10270 10272 10274 10277 10281 10285 10288 10292 10298 10302 10307 10312 10317 10323 10330 10338 10343 10348
10195 10197 10199 10202 10205 10208 10210 10212 10214 10216 10220 10223 10226 10229 10231 10234 10236 10237 10238 10239 10241 10243 10245 10245 10245 10244 10243 10243 10243 10243 10243 10243 10243 10242 10242 10243 10246 10248 10248 10247 10245 10244 10245 10245 10245 10245 10245 10245 10245 10244 10244 10245 10246 10246 10245 10245 10247 10248 10250 10251 10252 10254 10255 10257 10258 10260 10261 10263 10265 10267 10270 10273 10276 10279 10283 10288 10293 10297 10302 10307 10312 10319 10326 10332 10336
10191 10193 10196 10199 10202 10204 10206 10208 10210 10214 10217 10219 10221 10224 10226 10229 10231 10232 10233 10234 10236 10237 10238 10238 10237 10236 10236 10237 10237 10238 10238 10237 10236 10236 10237 10239 10241 10242 10242 10240 10239 10239 10239 10240 10240 10240 10240 10240 10239 10239 10239 10241 10241 10241 10241 10241 10242 10244 10245 10246 10247 10249 10250 10252 10253 10255 10256 10258 10259 10261 10263 10265 10268 10271 10275 10279 10283 10287 10292 10297 10302 10308 10315 10320 10324
10188 10191 10194 10196 10199 10201 10203 10205 10208 10210 10213 10215 10217 10220 10222 10225 10226 10227 10228 10229 10230 10231 10231 10231 10230 10230 10230 10230 10231 10232 10232 10231 10230 10231 10233 10234 10236 10237 10236 10234 10234 10234 10234 10235 10235 10235 10235 10234 10235 10235 10235 10236 10237 10237 10236 10237 10238 10239 10241 10242 10243 10245 10246 10247 10249 10250 10252 10253 10254 10255 10257 10259 10261 10264 10267 10270 10274 10279 10283 10287 10292 10297 10303 10308 10312
10187 10189 10191 10194 10196 10198 10200 10203 10205 10207 10209 10211 10214 10216 10219 10221 10222 10222 10223 10223 10224 10224 10224 10224 10224 10224 10224 10225 10226 10227 10226 10226 10226 10227 10228 10229 10231 10231 10230 10230 10229 10230 10230 10230 10230 10230 10230 10230 10230 10230 10231 10232 10232 10232 10232 10232 10233 10235 10236 10238 10239 10241 10242 10243 10245 10246 10247 10248 10249 10250 10252 10253 10255 10257 10260 10263 10267 10271 10274 10278 10282 10287 10292 10296 10300
10185 10187 10189 10191 10193 10195 10198 10200 10202 10204 10206 10208 10210 10213 10215 10216 10216 10217 10217 10217 10217 10217 10218 10218 10218 10219 10219 10220 10221 10221 10221 10221 10222 10223 10223 10225 10226 10226 10226 10225 10226 10226 10226 10226 10226 10226 10225 10225 10226 10227 10227 10227 10228 10228 10227 10228 10230 10231 10233 10234 10236 10237 10238 10239 10241 10242 10243 10244 10244 10245 10247 10248 10250 10252 10254 10257 10260 10263 10267 10270 10274 10278 10282 10287 10292
10182 10184 10186 10188 10190 10192 10195 10197 10199 10201 10202 10204 10206 10208 10209 10210 10211 10211 10210 10210 10211 10211 10212 10212 10213 10214 10215 10216 10216 10216 10216 10217 10218 10219 10219 10220 10221 10222 10222 10221 10221 10222 10222 10222 10222 10221 10221 10222 10223 10223 10223 10223 10223 10223 10223 10224 10226 10228 10230 10231 10232 10233 10235 10236 10237 10239 10239 10240 10240 10241 10242 10244 10245 10247 10249 10251 10254 10257 10260 10264 10268 10271 10275 10280 10285
10179 10181 10183 10185 10187 10189 10191 10193 10195 10196 10198 10200 10202 10203 10204 10204 10205 10204 10204 10205 10206 10206 10207 10207 10208 10209 10211 10211 10211 10211 10212 10212 10214 10215 10215 10216 10217 10217 10218 10217 10217 10218 10218 10218 10217 10217 10218 10218 10219 10219 10219 10218 10219 10219 10220 10221 10223 10225 10226 10227 10229 10230 10231 10232 10234 10235 10236 10236 10237 10238 10238 10240 10241 10242 10244 10246 10249 10251 10254 10258 10262 10266 10270 10274 10279
10176 10178 10180 10183 10185 10186 10188 10189 10191 10192 10194 10196 10197 10199 10199 10199 10199 10198 10199 10200 10200 10201 10202 10203 10203 10205 10206 10207 10207 10208 10208 10209 10210 10210 10211 10212 10213 10213 10213 10213 10214 10214 10213 10213 10213 10214 10215 10215 10215 10215 10214 10214 10215 10215 10216 10218 10220 10221 10222 10224 10225 10226 10228 10229 10231 10232 10233 10233 10234 10235 10235 10236 10237 10239 10241 10243 10245 10247 10250 10253 10257 10261 10265 10269 10274
10174 10176 10179 10181 10182 10183 10185 10186 10187 10189 10190 10192 10193 10194 10193 10193 10193 10193 10194 10195 10195 10196 10197 10198 10199 10200 10202 10202 10203 10204 10204 10205 10206 10206 10207 10208 10209 10209 10210 10210 10210 10210 10209 10209 10210 10211 10211 10211 10210 10210 10210 10210 10211 10212 10213 10215 10216 10218 10219 10220 10222 10223 10225 10227 10228 10229 10230 10231 10232 10232 10233 10234 10235 10236 10237 10239 10241 10244 10246 10249 10253 10256 10260 10264 10268
10172 10174 10176 10178 10179 10180 10181 10182 10183 10185 10186 10188 10188 10188 10188 10188 10188 10189 10189 10190 10190 10191 10193 10194 10195 10196 10197 10198 10199 10200 10201 10201 10202 10203 10204 10204 10205 10205 10206 10206 10206 10206 10206 10206 10206 10207 10206 10206 10206 10206 10206 10206 10207 10208 10210 10212 10213 10215 10216 10217 10219 10220 10222 10224 10225 10227 10228 10229 10229 10230 10231 10232 10232 10234 10235 10237 10239 10241 10243 10246 10249 10252 10255 10259 10264
10169 10171 10172 10173 10175 10176 10177 10178 10179 10180 10182 10183 10184 10184 10183 10183 10184 10185 10185 10186 10186 10187 10189 10190 10191 10193 10194 10194 10195 10196 10197 10198 10199 10199 10200 10201 10202 10202 10202 10203 10203 10203 10203 10203 10203 10202 10202 10202 10201 10202 10202 10203 10204 10205 10207 10208 10210 10212 10214 10215 10216 10217 10219 10221 10223 10224 10226 10227 10227 10228 10229 10230 10231 10232 10233 10235 10237 10239 10241 10243 10246 10249 10253 10256 10260
10165 10166 10168 10169 10171 10172 10173 10174 10175 10176 10178 10179 10179 10179 10178 10179 10180 10181 10181 10181 10182 10183 10185 10186 10188 10189 10190 10191 10192 10193 10194 10194 10195 10196 10197 10198 10198 10199 10199 10200 10200 10200 10199 10199 10199 10198 10198 10197 10197 10197 10198 10199 10201 10202 10204 10206 10208 10210 10211 10212 10213 10215 10217 10218 10220 10222 10223 10224 10225 10226 10227 10228 10229 10231 10232 10234 10236 10237 10239 10241 10244 10247 10250 10254 10257
10161 10162 10164 10165 10167 10168 10169 10170 10171 10172 10173 10174 10174 10174 10174 10175 10176 10176 10177 10178 10179 10180 10181 10183 10185 10186 10187 10187 10188 10189 10190 10191 10192 10194 10195 10195 10196 10196 10196 10197 10197 10196 10196 10196 10196 10195 10194 10193 10193 10194 10194 10196 10197 10199 10200 10203 10205 10207 10209 10210 10211 10213 10214 10216 10218 10220 10221 10222 10224 10225 10226 10227 10228 10229 10231 10233 10234 10236 10238 10241 10243 10246 10249 10252 10255
10156 10158 10159 10161 10162 10163 10165 10166 10167 10168 10170 10170 10170 10169 10169 10170 10171 10172 10173 10174 10175 10176 10178 10180 10181 10183 10183 10184 10185 10186 10187 10188 10190 10191 10192 10192 10193 10193 10194 10194 10194 10193 10193 10193 10192 10192 10191 10190 10190 10190 10191 10192 10194 10195 10197 10200 10203 10205 10207 10208 10209 10211 10213 10214 10216 10218 10219 10221 10222 10223 10224 10225 10227 10228 10229 10231 10233 10235 10238 10240 10243 10246 10248 10251 10254
10151 10153 10155 10157 10158 10159 10161 10162 10163 10165 10166 10166 10166 10165 10165 10165 10166 10168 10169 10171 10172 10173 10174 10176 10178 10180 10180 10181 10182 10182 10184 10185 10187 10188 10189 10190 10190 10191 10192 10192 10191 10190 10190 10189 10189 10189 10188 10187 10187 10188 10188 10190 10191 10193 10195 10197 10200 10202 10204 10206 10208 10209 10211 10213 10214 10216 10217 10219 10220 10221 10223 10224 10226 10227 10229 10230 10232 10234 10237 10239 10242 10245 10247 10250 10252
10148 10150 10151 10153 10154 10156 10157 10158 10160 10161 10161 10162 10162 10161 10161 10162 10162 10164 10165 10167 10168 10170 10171 10173 10175 10177 10177 10178 10179 10180 10181 10183 10184 10185 10187 10187 10188 10189 10189 10189 10188 10188 10187 10186 10186 10186 10186 10185 10185 10185 10186 10187 10189 10190 10192 10195 10197 10200 10202 10205 10206 10208 10210 10211 10213 10214 10216 10218 10219 10220 10222 10223 10225 10227 10228 10230 10232 10234 10236 10238 10241 10243 10246 10248 10250
10143 10145 10147 10148 10150 10151 10153 10154 10155 10156 10157 10158 10158 10157 10158 10158 10159 10160 10162 10163 10165 10167 10168 10170 10172 10173 10175 10175 10176 10177 10178 10180 10181 10183 10184 10185 10186 10187 10187 10187 10186 10186 10185 10184 10183 10183 10183 10183 10184 10184 10185 10186 10187 10189 10190 10193 10195 10198 10201 10203 10205 10207 10209 10210 10212 10213 10215 10216 10218 10220 10221 10223 10224 10226 10228 10229 10231 10233 10235 10237 10240 10242 10244 10247 10249
10138 10140 10142 10144 10145 10147 10149 10150 10151 10152 10153 10154 10154 10154 10154 10154 10155 10156 10158 10159 10161 10163 10165 10167 10168 10170 10172 10172 10173 10174 10176 10177 10179 10180 10181 10182 10184 10185 10185 10184 10184 10184 10183 10182 10181 10181 10181 10181 10182 10183 10184 10185 10186 10187 10189 10190 10193 10195 10198 10201 10203 10205 10207 10209 10211 10212 10214 10215 10217 10219 10220 10222 10224 10225 10227 10228 10230 10232 10235 10237 10239 10241 10243 10246 10248
10133 10135 10137 10139 10141 10142 10144 10145 10146 10148 10149 10149 10149 10150 10150 10151 10151 10152 10154 10156 10158 10160 10162 10163 10165 10166 10168 10170 10170 10171 10173 10175 10176 10177 10179 10180 10182 10182 10182 10182 10182 10182 10181 10180 10180 10180 10179 10180 10180 10181 10182 10183 10185 10186 10188 10189 10191 10193 10196 10198 10200 10202 10204 10207 10209 10212 10213 10214 10216 10217 10219 10221 10222 10224 10226 10228 10230 10232 10234 10236 10239 10241 10243 10246 10248